Regional Weather Roundup
Issued by NWS Cleveland, OH

Home | Current Version | Previous Version | Graphics & Text | Print | Product List | Glossary On
Versions: 1 2 3 4 5 6 7 8 9 10 11 12 13 14 15 16 17 18 19 20 21 22 23 24 25 26 27 28 29 30 31 32 33 34 35 36 37 38 39 40 41 42 43 44 45 46 47 48 49 50
000
ASUS41 KCLE 200802
RWRCLE
OHIO REGIONAL WEATHER ROUNDUP
NATIONAL WEATHER SERVICE CLEVELAND, OH
400 AM EDT FRI OCT 20 2017

NOTE: "FAIR" INDICATES FEW OR NO CLOUDS BELOW 12,000 FEET WITH NO
SIGNIFICANT WEATHER AND/OR OBSTRUCTIONS TO VISIBILITY.

OHZ001>008-015>018-024>027-034-035-043-044-200900-
   NORTHWEST OHIO

CITY           SKY/WX    TMP DP  RH WIND       PRES   REMARKS
DEFIANCE       FAIR      42  38  85 SW5       30.23R
FINDLAY        FAIR      42  38  85 S6        30.23R
TOLEDO EXPRESS FAIR      41  38  89 CALM      30.21S
TOLEDO EXEC    FAIR      45  37  73 CALM      30.22S
LIMA           FAIR      46  45  96 CALM      30.23S FOG
$$

OHZ009>014-019>023-028>033-038-089-200900-
   NORTHEAST OHIO

CITY           SKY/WX    TMP DP  RH WIND       PRES   REMARKS
CLE-HOPKINS    FAIR      49  46  90 SW3       30.24R
CLE-LAKEFRONT  FAIR      54  46  74 S5        30.20S
CUY CO. ARPT   NOT AVBL
LORAIN-ELYRIA  FAIR      44  38  79 CALM      30.23R
ASHTABULA      FAIR      43  42  97 CALM      30.21R
AKRON-CANTON   FAIR      49  45  86 W5        30.22R
WOOSTER        FAIR      41  39  93 CALM      30.23R
MANSFIELD      FAIR      47  46  97 CALM      30.23S
YOUNGSTOWN     FAIR      48  46  93 W3        30.21R
$$

OHZ042-051>053-060>062-070>072-077>081-200900-
  SOUTHWEST OHIO

CITY           SKY/WX    TMP DP  RH WIND       PRES   REMARKS
CINC-COVINGTON FAIR      51  51 100 CALM      30.24S
CINC-LUNKEN    FOG       46  46 100 CALM      30.26S VSB 3/4
HAMILTON       FOG       44  43  96 CALM      30.26R VSB 3/4
DAYTON         FAIR      52  50  93 CALM      30.25R
WRIGHT-PAT AFB FAIR      49  49 100 CALM      30.24R
DAYTON GENERAL FAIR      53  49  86 S3        30.24S
WILMINGTON     FAIR      51  49  92 W6        30.24F
$$

OHZ036-037-039>041-045>050-054>059-063>069-073>076-082>088-200900-
  CENTRAL AND SOUTHEAST OHIO

CITY           SKY/WX    TMP DP  RH WIND       PRES   REMARKS
COLUMBUS       FAIR      50  49  96 CALM      30.24R
OSU AIRPORT    FAIR      50  50 100 CALM      30.24R
BOLTON FIELD   FAIR      47  47  99 CALM      30.24S
RICKENBACK AFB FAIR      49  49  99 CALM      30.23S
NEWARK         FAIR      48  45  89 CALM      30.23S
MARION         FOG       44  43  96 CALM      30.24S VSB 1
LANCASTER      FAIR      47  45  93 CALM      30.24S
ZANESVILLE     FAIR      49  46  90 CALM      30.23S
NEW PHILLY     NOT AVBL
$$




USA.gov is the U.S. government's official web portal to all federal, state and local government web resources and services.